Location: Hiekkapohja
(62.3333°N, 25.7833°E)
Time: 22:47:29
(UTC+00:00)

ARIANE 5 R/B - Pass Details

Date: 07 August 2020
Orbit: 749 x 794 km, 98.6° (Epoch: 20 September)

Event Time Altitude Azimuth Distance (km) Brightness Sun altitude
Rises 00:22:24 0° 20° (NNE) 3,292 8.0 -7.9°
Reaches altitude 10° 00:25:01 10° 31° (NNE) 2,365 6.8 -7.7°
Maximum altitude 00:29:36 30° 92° (E) 1,396 4.2 -7.5°
Drops below altitude 10° 00:34:10 10° 153° (SSE) 2,365 4.7 -7.2°
Sets 00:36:47 0° 164° (SSE) 3,291 5.4 -7.0°
